THEOS

Last updated on Tue Oct 15 2024 00:02:24 GMT+0000 (Coordinated Universal Time)

1 33396U 08049A 24288.52105696 .00000270 00000+0 14686-3 0 9999 2 33396 98.6449 351.7649 0000960 97.6391 262.4895 14.20063134831294
UTC large
Height (km)
Speed (km/s)
/
Latitude / Longitude
Inclination (degrees)
Orbital Period (minutes)
Azimuth
Elevation
Range (km)
Doppler Factor

Next 0 passes for location: London (51.5072 / 0.1276)

Sorry there are no passes over London.